Time,TemperatureF,DewpointF,PressureIn,WindDirection,WindDirectionDegrees,WindSpeedMPH,WindSpeedGustMPH,Humidity,HourlyPrecipIn,Conditions,Clouds,dailyrainin,SoftwareType,DateUTC
2013-05-08 00:02:00,52.0,51.0,-100.00,NE,35,1.0,2.0,97,0.00,,,0.29,,2013-05-08 04:02:00,
2013-05-08 00:13:00,52.0,51.0,-100.00,NE,35,1.0,2.0,97,0.00,,,0.29,,2013-05-08 04:13:00,
2013-05-08 00:23:00,52.0,51.0,-100.00,NW,311,0.0,0.0,96,0.00,,,0.29,,2013-05-08 04:23:00,
2013-05-08 00:33:00,52.0,51.0,-100.00,NNW,337,1.0,2.0,96,0.00,,,0.29,,2013-05-08 04:33:00,
2013-05-08 00:43:00,52.0,51.0,-100.00,NNW,337,1.0,2.0,96,0.00,,,0.29,,2013-05-08 04:43:00,
2013-05-08 00:53:00,52.0,51.0,-100.00,NNW,329,2.0,2.0,96,0.00,,,0.29,,2013-05-08 04:53:00,
2013-05-08 01:02:00,52.0,51.0,-100.00,NW,316,0.0,0.0,95,0.00,,,0.29,,2013-05-08 05:02:00,
2013-05-08 01:12:00,52.0,51.0,-100.00,NW,316,0.0,0.0,95,0.00,,,0.29,,2013-05-08 05:12:00,
2013-05-08 01:22:00,52.0,51.0,-100.00,NW,316,0.0,0.0,96,0.00,,,0.29,,2013-05-08 05:22:00,
2013-05-08 01:32:00,51.0,50.0,-100.00,West,277,0.0,1.0,96,0.00,,,0.29,,2013-05-08 05:32:00,
2013-05-08 01:42:00,51.0,50.0,-100.00,West,277,0.0,1.0,96,0.00,,,0.29,,2013-05-08 05:42:00,
2013-05-08 01:52:00,51.0,51.0,-100.00,West,271,0.0,0.0,97,0.00,,,0.29,,2013-05-08 05:52:00,
2013-05-08 02:02:00,51.0,51.0,-100.00,NE,47,0.0,0.0,97,0.00,,,0.29,,2013-05-08 06:02:00,
2013-05-08 02:12:00,51.0,51.0,-100.00,NE,47,0.0,0.0,97,0.00,,,0.29,,2013-05-08 06:12:00,
2013-05-08 02:22:00,51.0,51.0,-100.00,NNW,336,1.0,2.0,97,0.00,,,0.29,,2013-05-08 06:22:00,
2013-05-08 02:32:00,51.0,51.0,-100.00,NNE,14,0.0,2.0,97,0.00,,,0.29,,2013-05-08 06:32:00,
2013-05-08 02:42:00,51.0,51.0,-100.00,NNE,14,0.0,2.0,97,0.00,,,0.29,,2013-05-08 06:42:00,
2013-05-08 02:52:00,51.0,51.0,-100.00,SW,230,0.0,0.0,98,0.00,,,0.29,,2013-05-08 06:52:00,
2013-05-08 03:02:00,51.0,51.0,-100.00,SW,217,0.0,0.0,98,0.00,,,0.29,,2013-05-08 07:02:00,
2013-05-08 03:11:00,51.0,51.0,-100.00,SW,217,0.0,0.0,98,0.00,,,0.29,,2013-05-08 07:11:00,
2013-05-08 03:22:00,51.0,51.0,-100.00,SSW,212,0.0,1.0,98,0.00,,,0.29,,2013-05-08 07:22:00,
2013-05-08 03:32:00,51.0,50.0,-100.00,WSW,243,0.0,2.0,98,0.00,,,0.29,,2013-05-08 07:32:00,
2013-05-08 03:42:00,51.0,50.0,-100.00,WSW,243,0.0,2.0,98,0.00,,,0.29,,2013-05-08 07:42:00,
2013-05-08 03:52:00,51.0,51.0,-100.00,SSW,195,0.0,1.0,98,0.00,,,0.29,,2013-05-08 07:52:00,
2013-05-08 04:02:00,51.0,51.0,-100.00,SSW,195,0.0,1.0,98,0.00,,,0.29,,2013-05-08 08:02:00,
2013-05-08 04:12:00,51.0,51.0,-100.00,SSW,195,0.0,1.0,98,0.00,,,0.29,,2013-05-08 08:12:00,
2013-05-08 04:22:00,51.0,50.0,-100.00,SSW,195,0.0,0.0,98,0.00,,,0.29,,2013-05-08 08:22:00,
2013-05-08 04:32:00,51.0,50.0,-100.00,WSW,254,1.0,1.0,98,0.00,,,0.29,,2013-05-08 08:32:00,
2013-05-08 04:42:00,51.0,50.0,-100.00,WSW,254,1.0,1.0,98,0.00,,,0.29,,2013-05-08 08:42:00,
2013-05-08 04:52:00,51.0,51.0,-100.00,WSW,253,1.0,2.0,98,0.00,,,0.29,,2013-05-08 08:52:00,
2013-05-08 05:02:00,51.0,51.0,-100.00,WSW,241,1.0,2.0,98,0.00,,,0.29,,2013-05-08 09:02:00,
2013-05-08 05:11:00,51.0,51.0,-100.00,WSW,241,1.0,2.0,98,0.00,,,0.29,,2013-05-08 09:11:00,
2013-05-08 05:21:00,51.0,51.0,-100.00,WSW,244,1.0,2.0,98,0.00,,,0.29,,2013-05-08 09:21:00,
2013-05-08 05:32:00,51.0,51.0,-100.00,South,191,1.0,2.0,98,0.00,,,0.29,,2013-05-08 09:32:00,
2013-05-08 05:42:00,51.0,51.0,-100.00,South,191,1.0,2.0,98,0.00,,,0.29,,2013-05-08 09:42:00,
2013-05-08 05:53:00,51.0,51.0,-100.00,SW,233,1.0,2.0,98,0.00,,,0.29,,2013-05-08 09:53:00,
2013-05-08 06:02:00,51.0,51.0,-100.00,SSW,203,0.0,0.0,99,0.00,,,0.29,,2013-05-08 10:02:00,
2013-05-08 06:12:00,51.0,51.0,-100.00,SSW,203,0.0,0.0,99,0.00,,,0.29,,2013-05-08 10:12:00,
2013-05-08 06:23:00,51.0,51.0,-100.00,SE,128,0.0,0.0,99,0.00,,,0.29,,2013-05-08 10:23:00,
2013-05-08 06:33:00,51.0,51.0,-100.00,South,172,1.0,2.0,99,0.00,,,0.29,,2013-05-08 10:33:00,
2013-05-08 06:42:00,51.0,51.0,-100.00,South,172,1.0,2.0,99,0.00,,,0.29,,2013-05-08 10:42:00,
2013-05-08 06:53:00,51.0,51.0,-100.00,SW,216,1.0,2.0,99,0.00,,,0.29,,2013-05-08 10:53:00,
2013-05-08 07:02:00,51.0,51.0,-100.00,SSW,210,1.0,2.0,99,0.00,,,0.29,,2013-05-08 11:02:00,
2013-05-08 07:12:00,51.0,51.0,-100.00,SSW,210,1.0,2.0,99,0.00,,,0.29,,2013-05-08 11:12:00,
2013-05-08 07:22:00,51.0,51.0,-100.00,WSW,253,0.0,2.0,99,0.00,,,0.29,,2013-05-08 11:22:00,
2013-05-08 07:32:00,51.0,51.0,-100.00,SW,215,1.0,2.0,99,0.00,,,0.29,,2013-05-08 11:32:00,
2013-05-08 07:42:00,51.0,51.0,-100.00,SW,215,1.0,2.0,99,0.00,,,0.29,,2013-05-08 11:42:00,
2013-05-08 07:52:00,51.0,51.0,-100.00,WSW,243,1.0,2.0,99,0.00,,,0.29,,2013-05-08 11:52:00,
2013-05-08 08:02:00,51.0,51.0,-100.00,SW,219,1.0,2.0,99,0.00,,,0.29,,2013-05-08 12:02:00,
2013-05-08 08:11:00,51.0,51.0,-100.00,SW,219,1.0,2.0,99,0.00,,,0.29,,2013-05-08 12:11:00,
2013-05-08 08:22:00,51.0,51.0,-100.00,SSW,199,1.0,2.0,99,0.00,,,0.29,,2013-05-08 12:22:00,
2013-05-08 08:32:00,52.0,51.0,-100.00,South,181,1.0,2.0,99,0.00,,,0.29,,2013-05-08 12:32:00,
2013-05-08 08:42:00,52.0,51.0,-100.00,South,181,1.0,2.0,99,0.00,,,0.29,,2013-05-08 12:42:00,
2013-05-08 08:52:00,52.0,51.0,-100.00,SSW,200,1.0,3.0,99,0.00,,,0.28,,2013-05-08 12:52:00,
2013-05-08 09:01:00,52.0,52.0,-100.00,SSE,155,0.0,1.0,99,0.00,,,0.28,,2013-05-08 13:01:00,
2013-05-08 09:12:00,52.0,52.0,-100.00,SSE,155,0.0,1.0,99,0.00,,,0.28,,2013-05-08 13:12:00,
2013-05-08 09:21:00,52.0,52.0,-100.00,SSE,150,1.0,2.0,99,0.00,,,0.28,,2013-05-08 13:21:00,
2013-05-08 09:32:00,52.0,52.0,-100.00,SSE,164,1.0,2.0,99,0.00,,,0.28,,2013-05-08 13:32:00,
2013-05-08 09:42:00,52.0,52.0,-100.00,West,278,1.0,2.0,99,0.00,,,0.25,,2013-05-08 13:42:00,
2013-05-08 09:52:00,52.0,52.0,-100.00,West,278,1.0,2.0,99,0.00,,,0.25,,2013-05-08 13:52:00,
2013-05-08 10:02:00,53.0,53.0,-100.00,SW,233,2.0,3.0,99,0.00,,,0.19,,2013-05-08 14:02:00,
2013-05-08 10:11:00,53.0,53.0,-100.00,SW,233,2.0,3.0,99,0.00,,,0.19,,2013-05-08 14:11:00,
2013-05-08 10:22:00,54.0,53.0,-100.00,ESE,121,1.0,2.0,99,0.00,,,0.15,,2013-05-08 14:22:00,
2013-05-08 10:32:00,53.0,53.0,-100.00,SW,236,2.0,2.0,98,0.00,,,0.11,,2013-05-08 14:32:00,
2013-05-08 10:42:00,53.0,53.0,-100.00,SW,236,2.0,2.0,98,0.00,,,0.11,,2013-05-08 14:42:00,
2013-05-08 10:52:00,55.0,54.0,-100.00,South,191,1.0,1.0,97,0.00,,,0.06,,2013-05-08 14:52:00,
2013-05-08 11:02:00,55.0,54.0,-100.00,South,191,1.0,1.0,97,0.00,,,0.06,,2013-05-08 15:02:00,
2013-05-08 11:11:00,55.0,54.0,-100.00,South,191,1.0,1.0,97,0.00,,,0.06,,2013-05-08 15:11:00,
2013-05-08 11:22:00,56.0,54.0,-100.00,South,175,1.0,2.0,95,0.00,,,0.06,,2013-05-08 15:22:00,
2013-05-08 11:33:00,56.0,55.0,-100.00,WSW,257,2.0,3.0,95,0.00,,,0.06,,2013-05-08 15:33:00,
2013-05-08 11:42:00,56.0,55.0,-100.00,WSW,257,2.0,3.0,95,0.00,,,0.06,,2013-05-08 15:42:00,
2013-05-08 11:53:00,57.0,55.0,-100.00,South,172,1.0,2.0,94,0.00,,,0.04,,2013-05-08 15:53:00,
2013-05-08 12:03:00,59.0,56.0,-100.00,SSW,195,2.0,4.0,89,0.00,,,0.04,,2013-05-08 16:03:00,
2013-05-08 12:13:00,59.0,56.0,-100.00,SSW,195,2.0,4.0,89,0.00,,,0.04,,2013-05-08 16:13:00,
2013-05-08 12:23:00,57.0,54.0,-100.00,SSE,168,1.0,2.0,90,0.00,,,0.03,,2013-05-08 16:23:00,
2013-05-08 12:33:00,60.0,56.0,-100.00,ESE,113,2.0,4.0,86,0.00,,,0.03,,2013-05-08 16:33:00,
2013-05-08 12:42:00,60.0,56.0,-100.00,ESE,113,2.0,4.0,86,0.00,,,0.03,,2013-05-08 16:42:00,
2013-05-08 12:52:00,60.0,54.0,-100.00,SW,220,2.0,6.0,79,0.00,,,0.03,,2013-05-08 16:52:00,
2013-05-08 13:02:00,60.0,54.0,-100.00,SW,220,2.0,6.0,79,0.00,,,0.03,,2013-05-08 17:02:00,
2013-05-08 13:12:00,60.0,54.0,-100.00,SW,220,2.0,6.0,79,0.00,,,0.03,,2013-05-08 17:12:00,
2013-05-08 13:22:00,61.0,53.0,-100.00,SSW,198,1.0,3.0,76,0.00,,,0.03,,2013-05-08 17:22:00,
2013-05-08 13:32:00,60.0,51.0,-100.00,South,184,1.0,2.0,71,0.00,,,0.03,,2013-05-08 17:32:00,
2013-05-08 13:42:00,60.0,51.0,-100.00,South,184,1.0,2.0,71,0.00,,,0.03,,2013-05-08 17:42:00,
2013-05-08 13:52:00,60.0,51.0,-100.00,WSW,254,2.0,4.0,71,0.00,,,0.03,,2013-05-08 17:52:00,
2013-05-08 14:02:00,60.0,51.0,-100.00,WSW,244,1.0,2.0,73,0.00,,,0.03,,2013-05-08 18:02:00,
2013-05-08 14:12:00,60.0,51.0,-100.00,WSW,244,1.0,2.0,73,0.00,,,0.03,,2013-05-08 18:12:00,
2013-05-08 14:21:00,60.0,54.0,-100.00,NNW,346,2.0,4.0,81,0.00,,,0.03,,2013-05-08 18:21:00,
2013-05-08 14:32:00,60.0,54.0,-100.00,NNW,346,2.0,4.0,81,0.00,,,0.03,,2013-05-08 18:32:00,
2013-05-08 14:42:00,61.0,53.0,-100.00,SE,131,1.0,2.0,75,0.00,,,0.03,,2013-05-08 18:42:00,
2013-05-08 14:52:00,60.0,53.0,-100.00,ESE,103,1.0,2.0,77,0.00,,,0.03,,2013-05-08 18:52:00,
2013-05-08 15:02:00,60.0,53.0,-100.00,ESE,103,1.0,2.0,77,0.00,,,0.03,,2013-05-08 19:02:00,
2013-05-08 15:11:00,60.0,53.0,-100.00,ENE,66,3.0,4.0,77,0.00,,,0.03,,2013-05-08 19:11:00,
2013-05-08 15:22:00,61.0,53.0,-100.00,SW,215,2.0,3.0,74,0.00,,,0.03,,2013-05-08 19:22:00,
2013-05-08 15:32:00,62.0,54.0,-100.00,SSE,160,1.0,2.0,75,0.00,,,0.03,,2013-05-08 19:32:00,
2013-05-08 15:42:00,62.0,54.0,-100.00,SSE,160,1.0,2.0,75,0.00,,,0.03,,2013-05-08 19:42:00,
2013-05-08 15:52:00,61.0,53.0,-100.00,West,263,2.0,3.0,75,0.00,,,0.03,,2013-05-08 19:52:00,
2013-05-08 16:02:00,61.0,54.0,-100.00,ESE,116,1.0,2.0,77,0.00,,,0.03,,2013-05-08 20:02:00,
2013-05-08 16:12:00,61.0,54.0,-100.00,ESE,116,1.0,2.0,77,0.00,,,0.03,,2013-05-08 20:12:00,
2013-05-08 16:22:00,61.0,54.0,-100.00,WSW,247,0.0,2.0,78,0.00,,,0.03,,2013-05-08 20:22:00,
2013-05-08 16:32:00,60.0,55.0,-100.00,ESE,109,0.0,1.0,82,0.00,,,0.03,,2013-05-08 20:32:00,
2013-05-08 16:42:00,60.0,55.0,-100.00,ESE,109,0.0,1.0,82,0.00,,,0.03,,2013-05-08 20:42:00,
2013-05-08 16:52:00,60.0,55.0,-100.00,East,79,3.0,5.0,84,0.00,,,0.03,,2013-05-08 20:52:00,
2013-05-08 17:01:00,58.0,54.0,-100.00,East,99,2.0,3.0,87,0.21,,,0.03,,2013-05-08 21:01:00,
2013-05-08 17:12:00,58.0,54.0,-100.00,East,99,2.0,3.0,87,0.21,,,0.03,,2013-05-08 21:12:00,
2013-05-08 17:21:00,59.0,56.0,-100.00,ESE,104,0.0,0.0,90,0.03,,,0.05,,2013-05-08 21:21:00,
2013-05-08 17:33:00,59.0,56.0,-100.00,ESE,104,0.0,0.0,90,0.03,,,0.05,,2013-05-08 21:33:00,
2013-05-08 17:43:00,59.0,56.0,-100.00,ESE,104,0.0,0.0,90,0.03,,,0.05,,2013-05-08 21:43:00,
2013-05-08 17:53:00,58.0,55.0,-100.00,ENE,68,1.0,2.0,91,0.13,,,0.09,,2013-05-08 21:53:00,
2013-05-08 18:03:00,58.0,55.0,-100.00,West,261,3.0,5.0,92,0.30,,,0.15,,2013-05-08 22:03:00,
2013-05-08 18:12:00,58.0,55.0,-100.00,West,261,3.0,5.0,92,0.30,,,0.15,,2013-05-08 22:12:00,
2013-05-08 18:22:00,58.0,56.0,-100.00,SW,224,1.0,3.0,94,0.00,,,0.17,,2013-05-08 22:22:00,
2013-05-08 18:33:00,57.0,56.0,-100.00,WSW,248,2.0,3.0,94,0.00,,,0.17,,2013-05-08 22:33:00,
2013-05-08 18:42:00,57.0,56.0,-100.00,WSW,248,2.0,3.0,94,0.00,,,0.17,,2013-05-08 22:42:00,
2013-05-08 18:53:00,57.0,55.0,-100.00,West,280,1.0,2.0,93,0.00,,,0.17,,2013-05-08 22:53:00,
2013-05-08 19:02:00,57.0,55.0,-100.00,SW,223,0.0,1.0,92,0.00,,,0.17,,2013-05-08 23:02:00,
2013-05-08 19:12:00,57.0,55.0,-100.00,SW,223,0.0,1.0,92,0.00,,,0.17,,2013-05-08 23:12:00,
2013-05-08 19:22:00,57.0,55.0,-100.00,ESE,104,0.0,1.0,93,0.00,,,0.17,,2013-05-08 23:22:00,
2013-05-08 19:32:00,57.0,55.0,-100.00,NNW,344,0.0,1.0,94,0.00,,,0.18,,2013-05-08 23:32:00,
2013-05-08 19:42:00,57.0,55.0,-100.00,NNW,344,0.0,1.0,94,0.00,,,0.18,,2013-05-08 23:42:00,
2013-05-08 19:52:00,57.0,55.0,-100.00,North,352,0.0,1.0,94,0.00,,,0.18,,2013-05-08 23:52:00,
2013-05-08 20:02:00,57.0,55.0,-100.00,ENE,61,1.0,2.0,93,0.00,,,0.18,,2013-05-09 00:02:00,
2013-05-08 20:12:00,57.0,55.0,-100.00,ENE,61,1.0,2.0,93,0.00,,,0.18,,2013-05-09 00:12:00,
2013-05-08 20:21:00,57.0,54.0,-100.00,NW,326,2.0,3.0,92,0.00,,,0.18,,2013-05-09 00:21:00,
2013-05-08 20:32:00,57.0,54.0,-100.00,NW,308,2.0,4.0,91,0.00,,,0.18,,2013-05-09 00:32:00,
2013-05-08 20:42:00,57.0,54.0,-100.00,NW,308,2.0,4.0,91,0.00,,,0.18,,2013-05-09 00:42:00,
2013-05-08 20:52:00,56.0,54.0,-100.00,NNW,337,1.0,2.0,92,0.00,,,0.17,,2013-05-09 00:52:00,
2013-05-08 21:01:00,56.0,54.0,-100.00,NW,315,1.0,2.0,92,0.00,,,0.17,,2013-05-09 01:01:00,
2013-05-08 21:12:00,56.0,54.0,-100.00,NW,315,1.0,2.0,92,0.00,,,0.17,,2013-05-09 01:12:00,
2013-05-08 21:22:00,56.0,54.0,-100.00,North,3,2.0,3.0,92,0.00,,,0.17,,2013-05-09 01:22:00,
2013-05-08 21:32:00,56.0,54.0,-100.00,North,350,2.0,3.0,92,0.00,,,0.17,,2013-05-09 01:32:00,
2013-05-08 21:42:00,56.0,54.0,-100.00,North,350,2.0,3.0,92,0.00,,,0.17,,2013-05-09 01:42:00,
2013-05-08 21:53:00,56.0,53.0,-100.00,North,356,1.0,2.0,93,0.00,,,0.17,,2013-05-09 01:53:00,
2013-05-08 22:02:00,55.0,53.0,-100.00,NW,313,2.0,3.0,92,0.00,,,0.17,,2013-05-09 02:02:00,
2013-05-08 22:12:00,55.0,53.0,-100.00,NW,313,2.0,3.0,92,0.00,,,0.17,,2013-05-09 02:12:00,
2013-05-08 22:22:00,55.0,53.0,-100.00,NNW,342,3.0,4.0,92,0.00,,,0.17,,2013-05-09 02:22:00,
2013-05-08 22:33:00,55.0,52.0,-100.00,NW,308,2.0,3.0,91,0.00,,,0.17,,2013-05-09 02:33:00,
2013-05-08 22:42:00,55.0,52.0,-100.00,NW,308,2.0,3.0,91,0.00,,,0.17,,2013-05-09 02:42:00,
2013-05-08 22:52:00,55.0,52.0,-100.00,NW,308,2.0,3.0,91,0.00,,,0.17,,2013-05-09 02:52:00,
2013-05-08 23:02:00,55.0,53.0,-100.00,NW,323,2.0,3.0,93,0.00,,,0.17,,2013-05-09 03:02:00,
2013-05-08 23:11:00,55.0,53.0,-100.00,NW,323,2.0,3.0,93,0.00,,,0.17,,2013-05-09 03:11:00,
2013-05-08 23:21:00,55.0,53.0,-100.00,NNW,332,3.0,4.0,93,0.00,,,0.17,,2013-05-09 03:21:00,
2013-05-08 23:33:00,54.0,53.0,-100.00,North,353,2.0,3.0,93,0.00,,,0.17,,2013-05-09 03:33:00,
2013-05-08 23:43:00,54.0,53.0,-100.00,North,353,2.0,3.0,93,0.00,,,0.17,,2013-05-09 03:43:00,
2013-05-08 23:53:00,54.0,52.0,-100.00,WNW,294,1.0,2.0,93,0.00,,,0.17,,2013-05-09 03:53:00,